When you browse on this site, cookies collect data to enhance your experience and personalize the content and advertising you see.
Visit our Privacy Policy to learn more. By continuing to use the site, you agree to this use of cookies and data.
  • In Hungary
  • List of Countries
  • For 7 days
  • Water Temperature
  • Weather Map
  • News
  • Weather Widgets
  • user-avatar
    Login

    Hourly Weather Krasnyy Skotovod

    Today, 24 February, Monday

    Time Temperature Precipitation Wind Pressure Humidity
    00:00 +3°C° 0 mm 6 mps 758 mmHg 81%
    01:00 +3°C° 0 mm 6 mps 758 mmHg 82%
    02:00 +3°C° 0 mm 6 mps 757 mmHg 83%
    03:00 +3°C° 0 mm 6 mps 756 mmHg 82%
    04:00 +3°C° 0 mm 5 mps 756 mmHg 83%
    05:00 +3°C° 0 mm 5 mps 755 mmHg 83%
    06:00 +4°C° 0 mm 4 mps 755 mmHg 84%
    07:00 +3°C° 0 mm 5 mps 755 mmHg 82%
    08:00 +3°C° 0 mm 5 mps 754 mmHg 81%
    09:00 +4°C° 0 mm 6 mps 754 mmHg 79%
    10:00 +3°C° 0.8 mm 6 mps 753 mmHg 82%
    11:00 +3°C° 0.8 mm 6 mps 752 mmHg 85%
    12:00 +3°C° 0.8 mm 6 mps 751 mmHg 88%
    13:00 +4°C° 0.5 mm 6 mps 750 mmHg 86%
    14:00 +4°C° 0.5 mm 6 mps 749 mmHg 84%
    15:00 +5°C° 0.5 mm 6 mps 748 mmHg 81%
    16:00 +5°C° 1.1 mm 7 mps 747 mmHg 83%
    17:00 +5°C° 1.1 mm 7 mps 746 mmHg 84%
    18:00 +5°C° 1.1 mm 8 mps 746 mmHg 86%
    19:00 +4°C° 1.7 mm 8 mps 745 mmHg 87%
    20:00 +4°C° 1.7 mm 8 mps 745 mmHg 88%
    21:00 +4°C° 1.7 mm 8 mps 744 mmHg 88%
    22:00 +3°C° 0.6 mm 9 mps 744 mmHg 86%
    23:00 +3°C° 0.6 mm 10 mps 743 mmHg 83%

    Tomorrow, 25 February, Tuesday

    Time Temperature Precipitation Wind Pressure Humidity
    00:00 +3°C° 0.6 mm 10 mps 743 mmHg 80%
    01:00 +3°C° 0 mm 11 mps 743 mmHg 79%
    02:00 +1°C° 0 mm 13 mps 744 mmHg 77%
    03:00 0°C° 0 mm 14 mps 744 mmHg 75%
    04:00 0°C° 0 mm 14 mps 744 mmHg 77%
    05:00 -1°C° 0 mm 14 mps 744 mmHg 80%
    06:00 -1°C° 0 mm 14 mps 745 mmHg 83%
    07:00 -2°C° 0.2 mm 14 mps 745 mmHg 86%
    08:00 -2°C° 0.2 mm 14 mps 746 mmHg 89%
    09:00 -3°C° 0.2 mm 15 mps 747 mmHg 92%
    10:00 -2°C° 0.2 mm 14 mps 748 mmHg 89%
    11:00 -1°C° 0.2 mm 13 mps 749 mmHg 86%
    12:00 -1°C° 0.2 mm 12 mps 750 mmHg 83%
    13:00 -1°C° 0 mm 12 mps 751 mmHg 77%
    14:00 +1°C° 0 mm 11 mps 752 mmHg 72%
    15:00 +1°C° 0 mm 10 mps 753 mmHg 67%
    16:00 +1°C° 0 mm 9 mps 754 mmHg 66%
    17:00 0°C° 0 mm 8 mps 754 mmHg 66%
    18:00 +1°C° 0 mm 6 mps 755 mmHg 65%
    19:00 -1°C° 0 mm 6 mps 755 mmHg 67%
    20:00 -1°C° 0 mm 6 mps 756 mmHg 69%
    21:00 -1°C° 0 mm 6 mps 756 mmHg 70%
    22:00 -1°C° 0 mm 5 mps 757 mmHg 74%
    23:00 -1°C° 0 mm 5 mps 757 mmHg 77%

    Day after tomorrow, 26 February, Wednesday

    Time Temperature Precipitation Wind Pressure Humidity
    00:00 -1°C° 0 mm 5 mps 757 mmHg 80%
    01:00 -1°C° 0 mm 4 mps 757 mmHg 79%
    02:00 -2°C° 0 mm 4 mps 757 mmHg 79%
    03:00 -2°C° 0 mm 4 mps 757 mmHg 78%
    04:00 -1°C° 0 mm 4 mps 757 mmHg 81%
    05:00 -1°C° 0 mm 4 mps 757 mmHg 83%
    06:00 -1°C° 0 mm 4 mps 757 mmHg 86%
    07:00 0°C° 0 mm 5 mps 757 mmHg 81%
    08:00 +1°C° 0 mm 5 mps 757 mmHg 77%
    09:00 +2°C° 0 mm 6 mps 757 mmHg 73%
    10:00 +3°C° 0 mm 5 mps 756 mmHg 66%
    11:00 +5°C° 0 mm 5 mps 756 mmHg 58%
    12:00 +6°C° 0 mm 5 mps 756 mmHg 50%
    13:00 +7°C° 0 mm 4 mps 756 mmHg 45%
    14:00 +8°C° 0 mm 4 mps 755 mmHg 40%
    15:00 +9°C° 0 mm 3 mps 755 mmHg 35%
    16:00 +9°C° 0 mm 3 mps 755 mmHg 37%
    17:00 +8°C° 0 mm 2 mps 754 mmHg 40%
    18:00 +7°C° 0 mm 2 mps 754 mmHg 42%
    19:00 +6°C° 0 mm 2 mps 754 mmHg 45%
    20:00 +5°C° 0 mm 3 mps 754 mmHg 48%
    21:00 +4°C° 0 mm 4 mps 754 mmHg 50%
    22:00 +4°C° 0 mm 4 mps 754 mmHg 53%
    23:00 +4°C° 0 mm 4 mps 754 mmHg 56%

    27 February, Thursday

    Time Temperature Precipitation Wind Pressure Humidity
    00:00 +3°C° 0 mm 5 mps 754 mmHg 59%
    01:00 +3°C° 0 mm 5 mps 753 mmHg 57%
    02:00 +2°C° 0 mm 5 mps 753 mmHg 56%
    03:00 +2°C° 0 mm 5 mps 753 mmHg 55%
    04:00 +2°C° 0 mm 5 mps 753 mmHg 57%
    05:00 +2°C° 0 mm 5 mps 753 mmHg 58%
    06:00 +2°C° 0 mm 5 mps 752 mmHg 59%
    07:00 +2°C° 0 mm 5 mps 752 mmHg 59%
    08:00 +3°C° 0 mm 5 mps 752 mmHg 59%
    09:00 +5°C° 0 mm 5 mps 753 mmHg 59%
    10:00 +7°C° 0 mm 5 mps 752 mmHg 54%
    11:00 +9°C° 0 mm 5 mps 752 mmHg 49%
    12:00 +12°C° 0 mm 5 mps 752 mmHg 44%
    13:00 +14°C° 0 mm 5 mps 752 mmHg 41%
    14:00 +17°C° 0 mm 4 mps 751 mmHg 39%
    15:00 +19°C° 0 mm 4 mps 751 mmHg 36%
    16:00 +17°C° 0 mm 4 mps 751 mmHg 40%
    17:00 +16°C° 0 mm 3 mps 751 mmHg 45%
    18:00 +13°C° 0 mm 3 mps 751 mmHg 49%
    19:00 +12°C° 0 mm 3 mps 751 mmHg 51%
    20:00 +12°C° 0 mm 3 mps 751 mmHg 53%
    21:00 +11°C° 0 mm 3 mps 751 mmHg 55%
    22:00 +11°C° 0 mm 3 mps 751 mmHg 57%
    23:00 +10°C° 0 mm 3 mps 751 mmHg 58%

    28 February, Friday

    Time Temperature Precipitation Wind Pressure Humidity
    00:00 +10°C° 0 mm 3 mps 750 mmHg 60%
    01:00 +9°C° 0 mm 3 mps 750 mmHg 62%
    02:00 +9°C° 0 mm 3 mps 749 mmHg 64%
    03:00 +7°C° 0 mm 4 mps 748 mmHg 66%
    04:00 +7°C° 0 mm 4 mps 748 mmHg 68%
    05:00 +7°C° 0 mm 4 mps 747 mmHg 70%
    06:00 +6°C° 0 mm 4 mps 747 mmHg 72%
    07:00 +7°C° 0 mm 4 mps 747 mmHg 70%
    08:00 +9°C° 0 mm 3 mps 747 mmHg 67%
    09:00 +9°C° 0 mm 3 mps 747 mmHg 65%
    10:00 +10°C° 0 mm 5 mps 747 mmHg 64%
    11:00 +11°C° 0 mm 7 mps 747 mmHg 63%
    12:00 +12°C° 0 mm 9 mps 747 mmHg 62%
    13:00 +12°C° 0 mm 9 mps 748 mmHg 60%
    14:00 +11°C° 0 mm 9 mps 748 mmHg 58%
    15:00 +11°C° 0 mm 9 mps 748 mmHg 56%
    16:00 +8°C° 0 mm 9 mps 749 mmHg 57%
    17:00 +7°C° 0 mm 9 mps 749 mmHg 58%
    18:00 +5°C° 0 mm 9 mps 750 mmHg 59%
    19:00 +3°C° 0 mm 9 mps 751 mmHg 61%
    20:00 +2°C° 0 mm 9 mps 752 mmHg 63%
    21:00 +2°C° 0 mm 9 mps 753 mmHg 65%
    22:00 +1°C° 0 mm 8 mps 753 mmHg 64%
    23:00 +1°C° 0 mm 8 mps 754 mmHg 64%

    29 February, Saturday

    Time Temperature Precipitation Wind Pressure Humidity
    00:00 +1°C° 0 mm 8 mps 754 mmHg 63%
    01:00 0°C° 0 mm 7 mps 755 mmHg 64%
    02:00 -1°C° 0 mm 6 mps 755 mmHg 65%
    03:00 -1°C° 0 mm 5 mps 755 mmHg 66%
    04:00 -1°C° 0 mm 4 mps 755 mmHg 69%
    05:00 -1°C° 0 mm 3 mps 756 mmHg 72%
    06:00 -1°C° 0 mm 3 mps 756 mmHg 75%
    07:00 0°C° 0 mm 3 mps 756 mmHg 72%
    08:00 +1°C° 0 mm 3 mps 756 mmHg 68%
    09:00 +2°C° 0 mm 3 mps 756 mmHg 65%
    10:00 +3°C° 0 mm 4 mps 755 mmHg 61%
    11:00 +4°C° 0 mm 4 mps 755 mmHg 57%
    12:00 +6°C° 0 mm 5 mps 755 mmHg 53%
    13:00 +5°C° 0 mm 7 mps 754 mmHg 54%
    14:00 +5°C° 0 mm 8 mps 753 mmHg 54%
    15:00 +6°C° 0 mm 9 mps 752 mmHg 54%
    16:00 +5°C° 0.3 mm 9 mps 752 mmHg 61%
    17:00 +3°C° 0.3 mm 10 mps 752 mmHg 68%
    18:00 +2°C° 0.3 mm 10 mps 752 mmHg 75%
    19:00 +2°C° 0.6 mm 10 mps 752 mmHg 75%
    20:00 +1°C° 0.6 mm 10 mps 753 mmHg 75%
    21:00 0°C° 0.6 mm 10 mps 754 mmHg 75%
    22:00 -1°C° 0 mm 9 mps 755 mmHg 70%
    23:00 -2°C° 0 mm 8 mps 756 mmHg 65%
    Show more